Powrót do katalogu

CZ-6A DEB

AktywnyPO
NORAD 60881·DEBRIS·🇨🇳 China

Wystrzelony Aug 6, 2024 z Taiyuan Satellite Launch Center

Loading…

Następne Przeloty (najbliższe 24 godziny)

TLE

ŚwieżeSource: Space-Track

Epoka: Sep 14, 2026, 07:51 UTC

1 60881U 24140KL  26257.32772381  .00000995  00000-0  41774-3 0  9998
2 60881  88.9960 264.1130 0030883 240.1248 119.6875 14.24929406105896

Śledź CZ-6A DEB w czasie rzeczywistym z AllMySat

Download on the App Store